Showing default

OPS 9381 (GGTS), 2207

Orbit data source: Space-Track

OPS 9381 (GGTS), 2207 is a payload satellite owned by USAF SSD (US) in GEO that was launched on Thu, 16 Jun 1966 UTC via a TITAN IIIC launch vehicle from the Air Force Eastern Test Range (AFETR). Payload-class satellites include a variety of spacecraft equipped with specific instruments for various scientific and technological missions. These include communications satellites like Starlink; space stations such as the ISS; scientific satellites like the Hubble; Earth observation satellites from companies like Planet Labs, Umbra, and HawkEye 360; GPS; miniature CubeSats for education and research; and military/defense satellites.

Not visible in the next 10 days
Identifier
2207, 1966-053A
Orbit
GEO
Last TLE update
7 hours ago
Origin
Manufacturer
GE/MSVD
Mission
Non-operational Defense Technology
Bus & Motor
GGTS, Unknown motor
Mass
47 kg wet, 47 kg dry
Launch date (UTC)
1966-06-16 (59 years ago)
Launch vehicle
TITAN IIIC
Launch site
Air Force Eastern Test Range (AFETR)
Object type
Payload
Rocket body
Debris
Shape & HBR
Poly + 2 Rod, 32 m
Radar Cross Section
0.926 m², Medium (>0.1 m² and < 1m²)

Expand to show TLE details & history

TLE from 7 hours ago
0 OPS 9381 (GGTS)
1 02207U 66053A   25181.88441391 -.00000119  00000-0  00000-0 0  9998
2 02207   8.0011  46.6619 0026116 225.9882  66.2246  1.08009819232163
Epoch: 2025-06-30T21:13Z
TLE epoch observation values (Epoch: 2025-06-30T21:13:33.361Z)
Latitude
-7.40895°
Longitude
101.78546°
Altitude
33,706.453 km
Speed
3.155 km/s
True Right ascension
22h 37m 26s
True Declination
-7° 24' 04"
Sunlit
Object was in daylight at epoch
Visualization orbit readout
Latitude
5.73299°
Longitude
-145.51523°
Altitude
33,852.081 km
Speed
3.144 km/s
Apparent Right ascension
05h 53m 55s
Apparent Declination
0° 04' 23"
Sunlit
Object is in daylight
Visualization observer readout
Local Sidereal Time
15:51:08
Azimuth
317.176° NNW
Elevation
-41.326°
Doppler factor
1
Orbital elements
Apogee altitude
33,853.794 km
Perigee altitude
33,644.202 km
Semi-major axis
40,127.135 km
Eccentricity
0.00261
Inclination
8.0011°
RAAN
46.6619°
Arg. of periapsis
225.9882°
True anomaly
Unknown
Mean anomaly
66.2246°
Eccentric anomaly
Unknown
Mean motion
0.27001 °/min
Orbital period
1,333.27 mins
BSTAR
0
Loading historical data...
2207 neighbors
Loading maneuver chart data...
Loading SW <> Apogee altitude chart data...
Loading historical data...
Loading historical data...
Loading historical data...
Loading historical data...
Loading historical data...
Loading historical data...
Loading historical data...

OPS 9381 (GGTS) Visibility

Observer location: undefined°, undefined°

OPS 9381 (GGTS) is likely not visible in the next few days
Span
Click to sort rows by Start time (UTC) header in descending order
Start Az.
Max El. time (UTC)
Max El. Az.
Max El.
End time (UTC)
End Az.
|